Tracking 20092 objects as of 14-Dec-2019
HD Live streaming from Space Station
objects crossing your sky now

FLOCK 3P 38

Track FLOCK 3P 38 now!
10-day predictions
FLOCK 3P 38 is classified as:


NORAD ID: 42037
Int'l Code: 2017-008CT
Perigee: 488.8 km
Apogee: 496.4 km
Inclination: 97.4 °
Period: 94.3 minutes
Semi major axis: 6863 km
RCS: Unknown
Launch date: February 15, 2017
Source: United States (US)
Launch site: SRIHARIKOTA (SRI)
aabbcc
Your satellite tracking list
Your tracking list is empty




NASA's NSSDC Master Catalog

Two Line Element Set (TLE):
1 42037U 17008CT  19347.88934708 +.00001771 +00000-0 +70046-4 0  9990
2 42037 097.3886 053.4384 0005588 248.0651 111.9994 15.26774425157109
Source of the keplerian elements: AFSPC